GSAT0201 (GALILEO 5) (40128 NORAD) Tracking and Keplerian Element Data

This shows tracking and keplerian element data for the satellite.

Feedback or suggestion? Click here.




ElementValue
Catalog40128
NameGSAT0201 (GALILEO 5)
Epoch Orbit7100
Epoch Day34.3145177
Epoch Year2025
RAAN293.7473
Inclination49.4144
Eccentricity0.161919
Argument of Perigee160.1222
Mean Anonmoly207.026
Mean Motion1.85519509
Decay Rate-4.7E-07
L11 40128U 14050A 25034.31451770 -.00000047 00000+0 00000+0 0 9997
L22 40128 49.4144 293.7473 1619190 160.1222 207.0260 1.85519509 71007



Live tracking and technical data element details for GSAT0201 (GALILEO 5) (NORAD 40128). GSAT0201 (GALILEO 5) can be tracked NOW for your location showing map with azimuth and elevation plus other details from your city location.







IsCatalogInMostPopularTable: catalog: 40128, numindb: 815
Update: records affected: 1



GetName: 40128 GSAT0201 (GALILEO 5)

Hit Count: updated at: Mon, 23 Jun 2025 12:51:51 GMT